Location: Unspecified
(0.0000°N, 0.0000°E)
Time: 17:23:55
(UTC+00:00)

LightSail 2 - Pass Details

Date: 16 January 2020
Orbit: 704 x 720 km, 24.0° (Epoch: 22 January)

Event Time Altitude Azimuth Distance (km) Brightness Sun altitude
Exits shadow 03:09:38 12° 95° (E) 2,060 8.1 -41.3°
Drops below altitude 10° 03:09:56 10° 97° (E) 2,164 8.2 -41.2°
Sets 03:12:27 0° 103° (ESE) 3,081 9.2 -40.6°
